Retour au catalogue

CZ-6A DEB

ActifPO
NORAD 55196·DEBRIS·🇨🇳 China

Lancé Nov 11, 2022 depuis Taiyuan Satellite Launch Center

Loading…

Prochains Passages (prochaines 24 heures)

TLE

FraisSource: Space-Track

Époque: Sep 13, 2026, 19:10 UTC

1 55196U 22151VM  26256.79863157  .00010702  00000-0  12340-2 0  9996
2 55196  98.6274 339.6809 0055633 334.0512  25.7913 14.84752418198810

Suivez CZ-6A DEB en temps réel avec AllMySat

Download on the App Store